Tracking 25995 objects as of 19-Aug-2022
HD Live streaming from Space Station
objects crossing your sky now

THOR ABLESTAR DEB

Track THOR ABLESTAR DEB now!
10-day predictions


NORAD ID: 20174
Int'l Code: 1961-015MK
Perigee: 795.8 km
Apogee: 1,537.0 km
Inclination: 67.1 °
Period: 108.5 minutes
Semi major axis: 7537 km
RCS: 0.0128 m2 (small)
Launch date: June 29, 1961
Source: United States (US)
Launch site: AIR FORCE EASTERN TEST RANGE (AFETR)

Note: This is SATELLITE DEBRIS
aabbcc
Your satellite tracking list
Your tracking list is empty




NASA's NSSDC Master Catalog

Two Line Element Set (TLE):
1 20174U 61015MK  22230.62822884  .00000098  00000-0  18836-3 0  9992
2 20174  67.0616  88.9249 0491670 353.5845   5.9050 13.26689300496121
Source of the keplerian elements: AFSPC